Flag for Angola Weather past 2 weeks in Cabinda, Angola

Now
75 °F

Broken clouds.


Feels Like: 76 °F
Forecast: 70 / 77 °F
Wind: 7 mph from Southwest

Location: Pointe Airport-Noire

Current Time: Aug 22, 2014 at 11:01:51 AM

Latest Report: Aug 22, 2014 at 10:00 AM


Visibility: N/A

Pressure: 30.01 "Hg

Humidity: 78%

Dew point: 68 °F

Location of CabindaLocation

Historic Weather in Cabinda — Graph

°F

Cabinda temperature yesterday

Maximum temperature yesterday: 79 °F (at 1:00 PM)
Minimum temperature yesterday: 68 °F (at 5:00 AM)
Average temperature yesterday: 73 °F

Past Weeks' High & Low Weather Summary

 TemperatureHumidityPressure
High79 °F (Aug 7, 1:00 PM)100% (Aug 8, 2:00 AM)30.04 "Hg (Aug 8, 2:00 AM)
Low66 °F (Aug 9, 3:00 AM)61% (Aug 13, 3:00 PM)29.89 "Hg (Aug 9, 3:00 PM)
Average73 °F84%29.97 "Hg
* Reported Aug 7 9:00 AM — Aug 22 9:00 AM, Cabinda, Weather by CustomWeather, © 2014

Note: Actual official high and low records may vary slightly from our data, if they occured in-between our weather recording intervals... More about our weather records

Advertising

Cabinda weather history for previous 24 hours

 ConditionsComfort  
Time TempWeatherWind HumidityBarometerVisibility
9:00 AM
Aug 22
73 °FBroken clouds.5 mph83%30.01 "Hg4 mi
8:00 AM72 °FFog.2 mph88%29.98 "Hg1 mi
7:00 AM68 °FFog.3 mph94%29.95 "Hg2 mi
6:00 AM68 °FFog.2 mph94%29.95 "Hg1 mi
5:00 AM70 °FFog.5 mph88%29.95 "Hg1 mi
4:00 AM68 °FFog.2 mph94%29.95 "Hg2 mi
3:00 AM68 °FMostly cloudy.No wind94%29.95 "Hg4 mi
2:00 AM70 °FOvercast.2 mph88%29.95 "Hg4 mi
1:00 AM72 °FPassing clouds.1 mph88%29.98 "Hg4 mi
12:00 AM72 °FPassing clouds.1 mph88%29.98 "Hg4 mi
11:00 PM
Aug 21
72 °FPassing clouds.3 mph88%30.01 "Hg4 mi
10:00 PM73 °FPassing clouds.5 mph78%30.01 "Hg4 mi
9:00 PM72 °FPassing clouds.6 mph88%29.98 "Hg5 mi
8:00 PM73 °FPartly cloudy.7 mph83%29.95 "Hg5 mi
7:00 PM73 °FPassing clouds.6 mph83%29.95 "HgN/A
6:00 PM75 °FPartly sunny.9 mph78%29.92 "HgN/A
5:00 PM75 °FPartly sunny.7 mph74%29.92 "HgN/A
4:00 PM77 °FBroken clouds.9 mph69%29.92 "HgN/A
3:00 PM79 °FScattered clouds.8 mph74%29.92 "HgN/A
2:00 PM79 °FPartly sunny.8 mph70%29.95 "HgN/A
1:00 PM79 °FPartly sunny.7 mph70%29.95 "HgN/A
12:00 PM77 °FMore clouds than sun.7 mph69%29.98 "Hg5 mi
11:00 AM77 °FMore clouds than sun.8 mph65%30.01 "Hg5 mi
Weather by CustomWeather, © 2014

See weather overviewHow to use our weather pages